Location: Hradec Kralove
(50.2170°N, 15.8330°E)
Time: 03:17:36
(UTC+01:00)

N. Korean satellite - Pass Details

Date: 03 December 2022
Orbit: 407 x 442 km, 97.3° (Epoch: 05 February)

Event Time Altitude Azimuth Distance (km) Brightness Sun altitude
Rises 05:04:03 0° 17° (NNE) 2,528 10.3 -23.4°
Reaches altitude 10° 05:06:10 10° 23° (NNE) 1,642 9.4 -23.1°
Maximum altitude 05:09:36 49° 99° (E) 611 7.4 -22.6°
Drops below altitude 10° 05:12:59 10° 176° (S) 1,608 9.3 -22.0°
Sets 05:15:02 0° 182° (S) 2,469 10.2 -21.7°
